Location: Westminster
(33.3626°N, 96.4619°W)
Time: 06:17:36
(UTC+00:00)

Cosmos 1515 Rocket - Pass Details

Date: 28 June 2022
Orbit: 604 x 630 km, 82.5° (Epoch: 14 August)

Event Time Altitude Azimuth Distance (km) Brightness Sun altitude
Rises 08:47:46 0° 18° (NNE) 2,899 8.2 -24.4°
Reaches altitude 10° 08:51:22 10° 49° (NE) 1,981 7.2 -24.0°
Maximum altitude 08:53:09 12° 73° (ENE) 1,830 6.6 -23.8°
Drops below altitude 10° 08:54:56 10° 98° (E) 1,969 6.5 -23.6°
Sets 08:58:28 0° 128° (SE) 2,862 7.0 -23.1°
